This demonstration page uses our WeatherBlox Daily Observations layout. Learn more.

Left ArrowRight Arrow

39.95238, -75.16362

Hourly Observations for August 25, 2016

Temp ( °F °C ) Dew Point ( °F °C ) Humidity (%) Winds ( mph kmh ) Pressure ( in mb ) Visibility ( mi km ) Precip ( " mm )
12:54 am 00:54 Partly Cloudy 71 21.7 63 17.2 76 76 SSW 7 11 30.18 1022 10 16 0.00 0.00
1:54 am 01:54 Partly Cloudy 71 21.7 63 17.2 76 76 SW 9 15 30.17 1022 10 16 0.00 0.00
2:54 am 02:54 Mostly Clear 70 21.1 62 16.7 76 76 SSW 8 13 30.15 1021 10 16 0.00 0.00
3:54 am 03:54 Mostly Clear 69 20.6 63 17.2 81 81 SSW 5 7 30.14 1021 10 16 0.00 0.00
4:54 am 04:54 Partly Cloudy 69 20.6 62 16.7 78 78 SW 6 9 30.14 1021 10 16 0.00 0.00
5:54 am 05:54 Partly Cloudy 69 20.6 61 16.1 76 76 SSW 5 7 30.14 1021 10 16 0.00 0.00
6:54 am 06:54 Mostly Cloudy 69 20.6 61 16.1 76 76 S 6 9 30.13 1020 10 16 0.00 0.00
7:54 am 07:54 Mostly Cloudy 72 22.2 61 16.1 68 68 SSW 8 13 30.13 1020 10 16 0.00 0.00
8:54 am 08:54 Mostly Cloudy 75 23.9 65 18.3 71 71 SSW 10 17 30.12 1020 10 16 0.00 0.00
9:54 am 09:54 Mostly Cloudy 78 25.6 66 18.9 67 67 SSW 13 20 30.11 1020 10 16 0.00 0.00
10:54 am 10:54 Mostly Cloudy 82 27.8 66 18.9 58 58 SSW 15 24 30.10 1019 10 16 0.00 0.00
11:54 am 11:54 Mostly Cloudy 84 28.9 67 19.4 57 57 SW 13 20 30.08 1019 10 16 0.00 0.00
12:54 pm 12:54 Mostly Cloudy 85 29.4 68 20 57 57 SSW 15 24 30.06 1018 10 16 0.00 0.00
1:54 pm 13:54 Mostly Cloudy 87 30.6 69 20.6 55 55 S 13 20 30.05 1018 10 16 0.00 0.00
2:54 pm 14:54 Cloudy 86 30 70 21.1 59 59 SSW 17 28 30.03 1017 10 16 0.00 0.00
3:54 pm 15:54 Cloudy 85 29.4 70 21.1 61 61 SSW 13 20 30.03 1017 10 16 0.00 0.03
4:54 pm 16:54 Cloudy 85 29.4 72 22.2 65 65 SSW 10 17 30.02 1017 10 16 0.00 0.03
5:54 pm 17:54 Mostly Cloudy 84 28.9 71 21.7 65 65 SSW 12 19 30.01 1016 10 16 0.00 0.00
6:54 pm 18:54 Mostly Cloudy 84 28.9 71 21.7 65 65 SW 13 20 30.01 1016 10 16 0.00 0.00
7:54 pm 19:54 Mostly Cloudy 83 28.3 71 21.7 67 67 SSW 12 19 30.02 1017 10 16 0.00 0.00
8:54 pm 20:54 Mostly Cloudy 81 27.2 71 21.7 72 72 SSW 7 11 30.03 1017 10 16 0.00 0.00
9:54 pm 21:54 Mostly Clear 80 26.7 71 21.7 74 74 SSW 8 13 30.02 1017 10 16 0.00 0.00
10:54 pm 22:54 Clear 79 26.1 70 21.1 74 74 SSW 8 13 30.02 1017 10 16 0.00 0.00
11:54 pm 23:54 Clear 79 26.1 70 21.1 74 74 SSW 10 17 30.02 1017 10 16 0.00 0.00

Powered by AerisWeather